Location: Bremen
(53.0793°N, 8.8017°E)
Time: 01:26:40
(UTC+01:00)

Explorer 7 - All Passes

Search period start: 28 November 2021 00:00
Search period end: 08 December 2021 00:00
Orbit: 483 x 675 km, 50.3° (Epoch: 27 November)

Date Brightness Start Highest point End Pass type
(mag) Time Alt. Az. Time Alt. Az. Time Alt. Az.
28 Nov - 07:35:14 10° SSE 07:36:38 11° SE 07:37:59 10° ESE daylight
28 Nov - 09:12:37 10° SW 09:16:17 34° SSE 09:19:48 10° E daylight
28 Nov - 10:52:30 10° WSW 10:56:22 57° S 11:00:05 10° E daylight
28 Nov - 12:32:52 10° W 12:36:30 41° SSW 12:40:02 10° SE daylight
28 Nov - 14:14:00 10° WSW 14:16:13 15° SW 14:18:24 10° S daylight
29 Nov - 07:37:49 10° S 07:40:25 16° SE 07:42:57 10° ESE daylight
29 Nov - 09:16:23 10° SW 09:20:13 42° SSE 09:23:52 10° E daylight
29 Nov - 10:56:30 10° W 11:00:21 57° S 11:04:05 10° ESE daylight
29 Nov - 12:36:57 10° W 12:40:25 33° SSW 12:43:49 10° SE daylight
29 Nov - 14:19:24 10° SW 14:19:58 10° SW 14:20:33 10° SSW daylight
30 Nov - 07:41:01 10° SSW 07:44:15 22° SSE 07:47:21 10° E daylight
30 Nov - 09:20:16 10° WSW 09:24:10 49° SSE 09:27:54 10° E daylight
30 Nov - 11:00:31 10° W 11:04:21 54° S 11:08:03 10° ESE daylight
30 Nov - 12:41:06 10° W 12:44:19 26° SSW 12:47:28 10° SSE daylight
01 Dec - 07:44:30 10° SW 07:48:07 29° SSE 07:51:33 10° E daylight
01 Dec - 09:24:11 10° WSW 09:28:09 55° S 09:31:55 10° E daylight
01 Dec - 11:04:33 10° W 11:08:19 47° SSW 11:11:58 10° ESE daylight
01 Dec - 12:45:21 10° W 12:48:09 19° SSW 12:50:54 10° SSE daylight
02 Dec - 06:10:19 10° S 06:12:18 13° SE 06:14:14 10° ESE visible
02 Dec - 07:48:10 10° SW 07:52:00 36° SSE 07:55:40 10° E daylight
02 Dec - 09:28:09 10° WSW 09:32:08 58° S 09:35:55 10° E daylight
02 Dec - 11:08:34 10° W 11:12:15 40° SSW 11:15:49 10° SE daylight
02 Dec - 12:49:52 10° WSW 12:51:56 14° SW 12:53:58 10° S daylight
03 Dec - 06:13:08 10° S 06:16:05 18° SE 06:18:56 10° E visible
03 Dec - 07:51:57 10° SW 07:55:56 44° SSE 07:59:43 10° E daylight
03 Dec - 09:32:08 10° W 09:36:06 57° S 09:39:54 10° ESE daylight
03 Dec - 11:12:39 10° W 11:16:10 32° SSW 11:19:33 10° SE daylight
04 Dec - 06:16:26 10° SSW 06:19:54 24° SSE 06:23:14 10° E visible
04 Dec - 07:55:50 10° WSW 07:59:53 52° S 08:03:44 10° E daylight
04 Dec - 09:36:08 10° W 09:40:05 53° S 09:43:51 10° ESE daylight
04 Dec - 11:16:47 10° W 11:20:01 25° SSW 11:23:10 10° SSE daylight
05 Dec - 04:43:46 10° SE 04:44:10 10° SE 04:44:35 10° SE visible
05 Dec - 06:19:57 10° SW 06:23:46 31° SSE 06:27:24 10° E visible
05 Dec - 07:59:45 10° WSW 08:03:52 57° S 08:07:44 10° E daylight
05 Dec - 09:40:09 10° W 09:44:03 47° SSW 09:47:45 10° ESE daylight
05 Dec - 11:21:03 10° W 11:23:50 19° SW 11:26:33 10° SSE daylight
06 Dec - 04:45:27 10° S 04:47:54 15° SE 04:50:18 10° ESE visible
06 Dec - 06:23:39 10° SW 06:27:40 39° SSE 06:31:29 10° E visible
06 Dec - 08:03:43 10° WSW 08:07:50 59° S 08:11:43 10° E daylight
06 Dec - 09:44:11 10° W 09:47:58 39° SSW 09:51:34 10° SE daylight
06 Dec - 11:25:37 10° WSW 11:27:36 14° SW 11:29:31 10° S daylight
07 Dec - 04:48:26 10° SSW 04:51:41 20° SSE 04:54:49 10° E visible
07 Dec - 06:27:26 10° WSW 06:31:35 47° SSE 06:35:30 10° E visible
07 Dec - 08:07:41 10° W 08:11:48 58° S 08:15:40 10° ESE daylight
07 Dec - 09:48:15 10° W 09:51:51 31° SSW 09:55:17 10° SE daylight
